Tracking 19192 objects as of 19-Jun-2018
HD Live streaming from Space Station
objects crossing your sky now

SCOUT G-1 DEB

Track SCOUT G-1 DEB now!
10-day predictions


NORAD ID: 22707
Int'l Code: 1993-041D
Perigee: 715.0 km
Apogee: 926.4 km
Inclination: 90.1 °
Period: 101.2 minutes
Semi major axis: 7191 km
RCS: 0.041 m2 (small)
Launch date: June 25, 1993
Source: United States (US)
Launch site: AIR FORCE WESTERN TEST RANGE (AFWTR)

Note: This is SATELLITE DEBRIS
aabbcc
Your satellite tracking list
Your tracking list is empty




NASA's NSSDC Master Catalog

Two Line Element Set (TLE):
1 22707U 93041D   18169.21845186 +.00000116 +00000-0 +40453-4 0  9993
2 22707 090.1050 253.1049 0146997 146.5080 214.5515 14.23503031293648
Source of the keplerian elements: AFSPC